Columbia County, Pennsylvania, United States
Lat: 41.04N, Lon: 76.43W
Wx Zone: PAZ053
Local Info
Past Weather Observations for Saturday, November 22, 2014

NOTE: This archive is for the closest National Weather Service station to Columbia County. Information may differ from the station used for current weather conditions.

Click here for Long-term Archive

Time Weather Temperature Dewpoint Humidity Pressure Winds Precip Visibility
23:53
Mostly Cloudy
39°F / 4°C 18°F / -8°C 42% 30.18 in
(1022 mb)
SW 4.6 mph
(SW 7 kph)
- 10SM
22:53
Clear
37°F / 3°C 18°F / -8°C 45% 30.18 in
(1022 mb)
SSE 4.6 mph
(SSE 7 kph)
- 10SM
21:53
Clear
34°F / 1°C 19°F / -7°C 56% 30.18 in
(1022 mb)
Calm - 10SM
20:53
Partly Cloudy
37°F / 3°C 18°F / -8°C 45% 30.21 in
(1023 mb)
SW 3.5 mph
(SW 6 kph)
- 10SM
19:53
Overcast
39°F / 4°C 18°F / -8°C 42% 30.21 in
(1023 mb)
SSE 4.6 mph
(SSE 7 kph)
0.00 in
(0.00 mm)
10SM
18:53
Overcast
39°F / 4°C 18°F / -8°C 42% 30.24 in
(1024 mb)
SSE 8.1 mph
(SSE 13 kph)
- 10SM
17:53
Overcast
39°F / 4°C 16°F / -9°C 39% 30.24 in
(1024 mb)
SSE 5.8 mph
(SSE 9 kph)
- 10SM
16:53
Overcast
39°F / 4°C 16°F / -9°C 39% 30.24 in
(1024 mb)
S 9.2 mph
(S 15 kph)
- 10SM
15:53
Overcast
39°F / 4°C 16°F / -9°C 39% 30.24 in
(1024 mb)
Variable 6.9 mph
(Variable 11 kph)
- 10SM
14:53
Overcast
37°F / 3°C 16°F / -9°C 41% 30.27 in
(1025 mb)
S 8.1 mph
(S 13 kph)
- 10SM
13:53
Overcast
37°F / 3°C 14°F / -10°C 38% 30.27 in
(1025 mb)
S 11.5 mph
(S 19 kph)
0.00 in
(0.00 mm)
10SM
12:53
Overcast
36°F / 2°C 12°F / -11°C 38% 30.33 in
(1027 mb)
S 10.4 mph
(S 17 kph)
- 10SM
11:53
Partly Cloudy
36°F / 2°C 12°F / -11°C 38% 30.33 in
(1027 mb)
S 11.5 mph
(S 19 kph)
- 10SM
10:53
Clear
34°F / 1°C 12°F / -11°C 41% 30.39 in
(1029 mb)
SSE 10.4 mph
(SSE 17 kph)
- 10SM
09:53
Clear
28°F / -2°C 16°F / -9°C 59% 30.42 in
(1030 mb)
S 6.9 mph
(S 11 kph)
- 10SM
08:53
Clear
23°F / -5°C 14°F / -10°C 68% 30.45 in
(1031 mb)
S 4.6 mph
(S 7 kph)
- 9SM
07:53
Clear
16°F / -9°C 12°F / -11°C 86% 30.45 in
(1031 mb)
Calm - 7SM
06:53
Clear
12°F / -11°C 9°F / -13°C 85% 30.48 in
(1032 mb)
Calm - 8SM
05:53
Clear
12°F / -11°C 9°F / -13°C 85% 30.45 in
(1031 mb)
Calm - 8SM
04:53
Clear
14°F / -10°C 10°F / -12°C 85% 30.48 in
(1032 mb)
NW 3.5 mph
(NW 6 kph)
- 8SM
03:53
Clear
14°F / -10°C 10°F / -12°C 85% 30.48 in
(1032 mb)
Calm - 9SM
02:53
Clear
16°F / -9°C 10°F / -12°C 79% 30.51 in
(1033 mb)
Calm - 9SM
01:53
Clear
16°F / -9°C 10°F / -12°C 79% 30.51 in
(1033 mb)
Calm - 10SM
00:53
Clear
18°F / -8°C 12°F / -11°C 79% 30.51 in
(1033 mb)
Calm - 10SM
Time Weather Temperature Dewpoint Humidity Pressure Winds Precip Visibility


Weather for websites

WeatherForYou.com, LLC is not responsible for any damages or problems caused by this service. Current weather conditions are obtained from the closest station including government and personal stations which may have varying degrees of accuracy. Weather forecasts are derived from the NOAA NDFD. Like all things, this site belongs to Jesus Christ... He just trusts me to maintain it. If you have any questions or comments email webmaster@weatherforyou.com

Copyright © 2014, WeatherForYou.com LLC. All rights reserved.